Regional Weather Roundup
Issued by NWS

Current Version | Previous Version | Text Only | Print | Product List | Glossary On
Versions: 1 2 3 4 5 6 7 8 9 10 11 12 13 14 15 16 17 18 19 20 21 22 23 24 25 26 27 28 29 30 31 32 33 34 35 36 37 38 39 40 41 42 43 44 45 46 47 48 49 50
000
ASUS43 KOAX 200110
RWRNE

WEATHER ROUNDUP FOR NEBRASKA
NATIONAL WEATHER SERVICE OMAHA NE
800 PM CDT SUN APR 19 2015

NOTES: SATELLITE DATA IS BEING USED TO AUGMENT CLOUD COVER ABOVE
       12000 FEET.
       "FAIR" INDICATES FEW OR NO CLOUDS BELOW 12,000 FEET WITH NO
       SIGNIFICANT WEATHER AND/OR OBSTRUCTIONS TO VISIBILITY.

  * THESE STATIONS DO NOT REPORT WEATHER SUCH AS RAIN...SNOW OR FOG.

NEZ001>004-019>022-054>056-200200-
NEBRASKA PANHANDLE

CITY           SKY/WX    TMP DP  RH WIND       PRES   REMARKS
SCOTTSBLUFF    PTCLDY    47  21  35 N16G25    30.01S
ALLIANCE       CLOUDY    47  22  37 N14       29.98R
CHADRON        CLOUDY    50  20  30 N15G23    29.99R
KIMBALL        CLEAR     44  20  39 N20       30.00S
SIDNEY         MOCLDY    44  21  40 N15G23    30.01S
$$

NEZ057>060-069>072-079>082-200200-
SOUTHWEST NEBRASKA

CITY           SKY/WX    TMP DP  RH WIND       PRES   REMARKS
NORTH PLATTE   PTCLDY    49  23  36 N20G26    29.93S
IMPERIAL       CLOUDY    49  24  37 N18G25    29.96S
LEXINGTON      PTCLDY    48  32  53 N17       29.90S
MCCOOK         MOCLDY    50  26  39 N15       29.93S
OGALLALA       PTCLDY    49  25  39 NW12      29.96S
$$

NEZ005>010-023>029-035>040-094-200200-
NORTH CENTRAL NEBRASKA

CITY           SKY/WX    TMP DP  RH WIND       PRES   REMARKS
VALENTINE      CLEAR     47  25  42 NW20G32   29.92S
AINSWORTH      MOCLDY    47  29  49 NW24      29.91S
BROKEN BOW     PTCLDY    49  27  42 N26G35    29.88S
O`NEILL        PTCLDY    48  32  52 NW21G28   29.85S
ORD            PTCLDY    49  27  42 N25G36    29.85S
THEDFORD       PTCLDY    49  27  41 N21G30    29.92S
$$

NEZ041-046>049-061>064-073>077-083>087-200200-
SOUTH CENTRAL NEBRASKA

CITY           SKY/WX    TMP DP  RH WIND       PRES   REMARKS
GRAND ISLAND   CLOUDY    51  28  41 NW24G35   29.84S
AURORA         CLOUDY    50  32  49 N20G25    29.82S
HASTINGS       CLOUDY    50  32  50 N20G25    29.84S
HEBRON         PTCLDY    52  30  42 N18G24    29.81R
HOLDREGE       MOCLDY    50  28  43 N18G30    29.88S
KEARNEY *        N/A    N/A N/A N/A MISG        N/A
YORK           CLOUDY    50  36  57 N15G21    29.81R
$$

NEZ011>018-030>034-042>045-200200-
NORTHEAST NEBRASKA

CITY           SKY/WX    TMP DP  RH WIND       PRES   REMARKS
ALBION         MOCLDY    50  29  44 N16G28    29.82S
BLAIR          CLOUDY    51  36  57 NW17G25   29.71S
COLUMBUS *     CLOUDY    52  30  43 NW21G26   29.80S
FREMONT        MOCLDY    52  35  52 NW24G30   29.75S
TEKAMAH        CLOUDY    52  38  58 NW20      29.72S
WAYNE          PTCLDY    50  32  49 NW18G24   29.76F
$$

NEZ050>053-065>068-078-088>093-200200-
SOUTHEAST NEBRASKA

CITY           SKY/WX    TMP DP  RH WIND       PRES   REMARKS
LINCOLN        MOCLDY    53  32  44 N23G35    29.77R
OMAHA EPPLEY   CLOUDY    52  41  66 NW14      29.71S
BEATRICE       CLOUDY    52  35  52 NW18G29   29.77R
FALLS CITY     CLOUDY    51  42  71 NW8       29.72S
NEBRASKA CITY  CLOUDY    50  38  61 NW9       29.72S
PLATTSMOUTH    CLOUDY    51  37  57 NW23G30   29.71S
$$

NEZ044-045-051>053-067-200200-
OMAHA AREA

CITY           SKY/WX    TMP DP  RH WIND       PRES   REMARKS
OMAHA EPPLEY   CLOUDY    52  41  66 NW14      29.71S
BLAIR          CLOUDY    51  36  57 NW17G25   29.71S
FREMONT        MOCLDY    52  35  52 NW24G30   29.75S
MILLARD        CLOUDY    53  35  50 NW14G29   29.72S
OFFUTT AFB     CLOUDY    52  40  62 NW16      29.70S
PLATTSMOUTH    CLOUDY    51  37  57 NW23G30   29.71S
WAHOO          CLOUDY    52  33  49 NW18G30   29.75S
$$


USA.gov is the U.S. government's official web portal to all federal, state and local government web resources and services.